User: anonymous   Login
Location: Caltech
(34.1382°N, 118.1253°W)
Time: 23:49:04
(UTC-07:00)
Language:

Iridium 68 - Orbit

View from above orbital plane
View from above orbital plane
View from above satellite
View from above satellite

Ground track
Ground track

The orbit data is extracted from the following two-line orbital elements,

1 25291U 98021G   16272.13140536  .00000206  00000-0  66627-4 0  9999
2 25291  86.3984 333.5753 0002325  94.5306 265.6155 14.34225025967434
Epoch (UTC): 28 September 2016 03:09:13
Eccentricity: 0.0002325
inclination: 86.3984°
perigee height: 776 km
apogee height: 779 km
right ascension of ascending node: 333.5753°
argument of perigee: 94.5306°
revolutions per day: 14.34225025
mean anomaly at epoch: 265.6155°
orbit number at epoch: 96743

The dashed part of the orbit path shows where the satellite is in the earth's shadow,  

DLR